Lapse_Rate
6.2 6.4 6.3 6.2 6.4 6.6 7.0 7.3 7.3 7.5 7.4 7.1 6.8 6.3 5.9 5.5 5.3 5.8 5.9 5.8 5.9 6.6 7.0 7.2 7.3 7.6 7.5 7.4 7.3 7.4 7.2 7.2 7.6 7.3 7.4 7.3 7.2 7.0 7.2 6.9 6.7 6.9 6.6 6.6 6.3 6.7 7.2 6.1 6.3 6.0 5.5 5.4 5.2 5.0
6.3 6.4 6.5 6.5 6.6 6.6 6.9 7.3 7.4 7.3 7.2 6.9 6.6 6.2 6.0 5.6 5.6 5.9 6.0 5.8 6.1 6.4 6.8 7.0 7.4 7.6 7.6 7.4 7.4 7.3 7.1 6.9 6.8 7.0 7.1 7.2 7.0 7.0 6.7 7.2 6.7 6.6 6.2 5.9 6.1 6.0 5.7 5.6 5.9 5.8 5.7 5.5 5.5 5.4
6.3 6.5 6.7 6.7 6.6 6.8 6.9 6.9 7.0 7.1 6.9 6.8 6.5 6.2 6.0 5.7 5.8 6.0 6.0 6.0 6.3 6.6 7.0 7.3 7.4 7.6 7.8 7.8 7.4 7.4 7.4 7.4 7.3 7.0 7.0 7.0 7.0 7.2 7.2 7.1 6.7 6.3 6.0 5.7 5.8 5.9 5.8 5.8 5.8 5.5 5.6 5.6 5.6 5.6
6.2 6.3 6.5 6.5 6.5 6.6 6.8 6.8 6.8 6.8 6.8 6.7 6.5 6.3 6.1 5.9 5.9 6.1 6.1 6.1 6.4 6.5 6.8 7.1 7.4 7.7 7.6 7.6 7.3 7.4 7.5 7.5 7.4 7.4 7.1 6.8 6.8 6.9 6.8 6.7 6.2 5.8 5.7 5.6 5.7 5.8 6.0 5.9 5.5 5.3 5.6 5.6 5.6 5.6
6.3 6.3 6.3 6.3 6.4 6.5 6.6 6.7 6.7 6.8 6.7 6.6 6.4 6.3 6.1 6.3 6.1 6.1 6.1 6.2 6.4 6.4 6.7 7.1 7.3 7.6 7.6 7.4 7.3 7.3 7.4 7.4 7.4 7.5 7.4 6.7 6.9 6.6 6.8 6.6 6.3 5.9 5.7 5.7 5.8 5.9 6.0 6.1 5.9 5.5 5.8 5.6 5.5 5.6
6.3 6.4 6.4 6.3 6.3 6.6 6.6 6.5 6.7 6.7 6.6 6.5 6.4 6.3 6.3 6.5 6.4 6.4 6.3 6.4 6.6 6.6 6.7 7.2 7.1 7.1 7.2 7.1 7.1 7.3 7.4 7.3 7.3 7.3 7.4 7.3 6.8 6.6 6.6 6.1 5.7 5.5 5.6 5.8 5.8 5.9 5.9 6.1 6.1 6.0 6.0 5.8 5.7 5.6
6.2 6.3 6.4 6.5 6.5 6.5 6.5 6.5 6.6 6.6 6.6 6.4 6.4 6.4 6.7 6.9 6.8 6.6 6.7 6.6 6.5 6.5 6.8 7.0 7.0 7.0 7.0 7.0 7.0 7.1 7.2 7.2 7.1 7.3 7.4 7.2 7.1 6.7 6.5 6.3 5.9 5.5 5.5 5.7 5.8 5.9 5.9 6.0 6.0 6.1 6.1 6.0 5.9 5.8
6.1 6.2 6.3 6.6 6.7 6.6 6.6 6.6 6.6 6.7 6.6 6.5 6.4 6.6 6.9 7.0 6.8 6.8 6.7 6.4 6.5 6.5 6.6 6.7 7.0 7.0 6.9 7.0 7.0 7.1 7.1 7.1 7.2 7.1 7.2 7.0 7.1 6.7 6.6 6.4 6.3 6.1 5.9 5.9 6.0 6.0 6.0 6.0 6.0 6.1 6.1 6.0 6.0 6.0
6.0 6.1 6.2 6.7 6.8 6.7 6.9 6.8 6.7 6.7 6.6 6.5 6.6 6.8 7.1 7.0 7.0 6.9 6.8 6.5 6.4 6.5 6.6 6.9 7.0 6.9 7.1 6.9 7.0 7.0 7.1 7.2 7.0 7.2 7.1 7.0 6.9 6.9 6.8 6.6 6.5 6.4 6.2 6.1 6.1 6.1 6.1 6.1 6.0 6.1 5.9 5.8 5.7 5.6
5.6 5.9 6.4 6.9 6.9 7.0 7.0 7.0 6.8 6.8 6.6 6.6 6.8 7.2 7.0 7.2 7.1 6.8 6.8 6.5 6.7 7.1 7.0 7.3 7.3 7.1 7.2 7.1 6.9 6.8 7.0 7.0 7.1 7.0 7.0 6.8 6.8 7.0 6.9 6.7 6.6 6.5 6.5 6.3 6.2 6.2 6.1 6.1 6.0 5.9 5.8 5.7 5.7 5.7
5.5 6.0 6.6 6.9 6.9 6.9 6.9 7.0 6.8 7.0 6.7 7.0 7.1 7.1 7.2 7.2 7.1 6.7 6.7 6.7 7.1 7.3 7.6 7.9 7.9 7.5 7.5 7.4 7.2 6.9 7.0 6.9 6.9 7.2 7.1 7.0 7.2 7.1 7.0 6.6 6.5 6.5 6.5 6.4 6.3 6.2 6.1 5.9 5.8 5.8 5.8 5.6 5.5 5.4
5.8 6.5 6.9 7.0 7.0 6.9 7.0 6.8 6.8 6.7 6.9 7.3 7.3 7.2 7.3 7.2 7.0 6.9 6.6 7.0 7.4 7.7 8.0 8.1 8.1 8.0 7.7 7.4 7.2 7.3 7.2 7.1 7.3 7.3 7.2 7.0 7.4 7.2 7.1 6.8 6.6 6.4 6.4 6.3 6.2 6.2 6.2 6.1 5.9 5.8 5.6 5.4 5.2 5.2
6.7 6.9 7.0 7.0 7.0 7.0 6.9 6.8 6.8 7.1 7.2 7.3 7.2 7.2 7.3 7.2 7.2 7.0 7.0 7.6 7.9 8.3 8.2 8.2 8.1 8.0 7.7 7.3 7.2 7.2 7.2 7.3 7.3 7.3 7.1 7.3 7.2 7.2 7.3 6.9 6.6 6.5 6.5 6.4 6.4 6.2 5.9 5.7 5.5 5.4 5.3 5.3 5.3 5.3
7.0 7.0 7.0 7.1 7.0 7.0 6.9 7.0 7.2 7.1 7.2 7.5 7.4 7.2 7.3 7.1 7.3 7.6 8.1 8.4 8.3 8.1 8.2 8.1 7.9 7.7 7.6 7.5 7.3 7.2 7.4 7.6 7.4 7.3 7.3 7.5 7.3 7.1 7.0 6.9 6.8 6.6 6.5 6.4 6.1 5.9 5.8 5.6 5.6 5.7 5.7 5.6 5.5 5.4
7.1 7.1 7.1 7.2 7.1 7.0 7.2 7.3 7.3 7.3 7.4 7.4 7.5 7.5 7.3 7.4 7.7 8.0 8.3 8.2 8.0 7.8 8.1 7.9 7.8 7.6 7.7 7.6 7.7 7.5 7.4 7.1 7.3 7.3 7.6 7.4 7.3 7.1 7.0 6.8 6.6 6.4 6.2 6.0 5.9 5.8 5.7 5.7 5.7 5.6 5.5 5.3 5.2 5.1
7.2 7.1 7.3 7.3 7.4 7.6 7.4 7.4 7.6 7.5 7.6 7.7 7.6 7.4 7.5 7.9 8.0 7.9 8.1 8.2 8.0 7.7 7.8 7.7 7.5 7.5 7.5 7.5 7.4 7.4 7.3 7.7 7.8 7.7 7.4 7.2 7.1 6.9 6.7 6.6 6.4 6.2 6.0 5.9 5.8 5.8 5.7 5.5 5.3 5.3 5.1 4.9 4.8 4.7
7.3 7.6 7.5 7.6 7.6 7.6 7.4 7.5 7.7 7.6 7.5 7.4 7.5 7.6 8.0 8.1 8.0 8.3 8.3 8.1 7.8 7.8 7.7 7.5 7.5 7.5 7.5 7.5 7.6 7.6 7.8 8.0 8.0 7.7 7.4 7.1 6.9 6.8 6.6 6.4 6.2 6.0 6.0 5.7 5.6 5.5 5.3 5.1 5.0 4.8 4.8 4.8 4.7 4.7
7.4 7.4 7.5 7.6 7.5 7.3 7.5 7.8 7.9 7.7 7.8 7.5 7.5 7.9 8.2 8.3 8.1 8.2 8.4 8.1 7.8 7.7 7.6 7.5 7.6 7.5 7.5 7.6 7.8 7.9 7.9 7.8 7.7 7.5 7.3 7.0 6.8 6.6 6.4 6.3 6.2 5.9 5.6 5.5 5.4 5.1 4.9 4.8 4.8 4.8 4.8 4.8 4.8 4.8
7.4 7.5 7.5 7.5 7.5 7.4 7.6 7.6 7.8 8.1 7.9 7.6 7.9 8.2 8.4 8.5 8.3 8.1 8.1 7.9 7.8 7.6 7.2 7.1 7.4 7.4 7.4 7.5 7.7 7.7 7.6 7.6 7.3 7.1 7.0 6.9 6.7 6.5 6.2 6.2 5.9 5.6 5.3 5.2 5.0 5.0 5.2 5.2 5.1 5.1 5.0 4.9 4.8 4.9
7.8 7.4 7.4 7.5 7.4 7.9 7.7 7.5 7.8 7.7 8.0 8.1 8.2 8.4 8.5 8.6 8.3 8.1 7.8 7.6 7.2 6.9 6.3 6.7 7.1 7.2 7.3 7.3 7.5 7.5 7.4 7.4 7.2 7.0 6.8 6.6 6.6 6.5 6.2 5.8 5.6 5.4 5.4 5.4 5.5 5.5 5.3 5.2 5.0 4.8 4.7 4.6 4.7 4.8
7.2 7.3 7.5 7.6 7.7 7.8 7.8 7.7 7.7 8.0 8.4 8.4 8.2 8.2 8.2 8.1 7.9 7.5 7.3 6.6 6.2 6.4 6.6 6.9 7.0 7.0 7.1 7.2 7.3 7.2 7.1 7.1 7.0 6.8 6.4 6.5 6.3 6.2 6.0 5.9 5.7 5.8 5.8 5.7 5.5 5.2 5.0 4.6 4.6 4.6 4.6 4.8 4.9 4.9
7.5 7.4 7.5 7.7 7.7 7.8 7.8 7.9 8.0 8.2 8.3 8.3 8.0 7.9 7.9 7.6 7.4 7.1 6.6 6.3 6.2 6.3 6.4 6.6 6.7 6.7 6.9 7.1 7.1 7.0 6.9 6.7 6.8 6.7 6.6 6.4 6.3 6.1 5.9 5.9 5.9 5.8 5.4 5.1 5.0 4.9 4.8 4.7 4.6 4.6 4.8 4.9 5.0 5.0
7.6 7.6 7.7 7.8 7.8 7.8 8.0 8.0 8.1 8.1 8.1 8.3 7.9 7.5 7.4 7.4 7.2 6.5 6.0 6.1 6.2 6.3 6.4 6.4 6.5 6.7 6.9 7.0 7.0 6.8 6.6 6.5 6.5 6.5 6.4 6.2 6.0 6.0 6.0 5.9 5.7 5.4 5.1 5.0 5.1 5.0 4.9 4.8 4.7 4.8 4.9 5.0 5.0 5.0
7.5 7.6 7.6 7.6 7.6 7.8 7.7 7.7 7.9 7.9 8.0 8.0 7.7 7.5 7.5 7.3 7.0 6.4 6.4 6.7 6.8 6.6 6.4 6.5 6.6 6.7 6.7 6.8 6.7 6.5 6.4 6.4 6.4 6.3 6.1 6.0 6.0 6.0 5.8 5.6 5.5 5.4 5.3 5.3 5.2 4.9 4.8 4.7 4.7 4.9 5.0 5.0 5.0 5.2
7.4 7.5 7.5 7.6 7.7 7.9 7.8 7.8 7.7 7.7 7.8 7.7 7.7 7.5 7.4 7.2 6.9 6.7 6.9 6.9 6.7 6.7 6.6 6.6 6.6 6.6 6.6 6.4 6.3 6.4 6.4 6.3 6.1 6.0 6.0 6.0 5.9 5.8 5.7 5.7 5.6 5.5 5.2 5.2 4.9 4.8 4.8 4.8 4.9 4.9 4.9 4.9 5.1 5.5
7.3 7.2 7.3 7.6 7.7 7.6 7.6 7.6 7.5 7.6 7.6 7.5 7.3 7.2 7.0 6.7 6.6 6.6 6.9 6.8 6.7 6.7 6.7 6.6 6.4 6.4 6.4 6.2 5.9 5.9 6.0 6.0 5.9 6.0 5.9 5.8 5.8 5.7 5.7 5.6 5.5 5.3 5.1 4.9 4.9 4.8 4.8 4.8 4.8 4.8 4.8 4.9 5.2 5.5
7.2 7.1 7.1 7.0 6.8 7.0 7.0 7.0 7.2 7.0 7.0 7.0 7.1 7.0 6.7 6.5 6.6 6.9 6.8 6.7 6.7 6.8 6.7 6.6 6.4 6.2 5.8 6.1 6.1 6.0 5.9 5.8 5.9 5.9 5.8 5.7 5.7 5.6 5.6 5.4 5.3 5.2 4.9 4.9 4.9 4.8 4.8 4.8 4.8 4.7 4.7 5.0 5.3 5.4
6.9 6.9 6.7 6.5 6.4 6.4 6.5 6.4 6.5 6.4 6.6 6.8 6.7 6.5 6.6 6.8 7.0 6.9 6.8 6.9 6.9 6.9 6.8 6.6 6.4 6.3 6.1 5.8 5.8 5.7 5.7 5.8 5.8 5.7 5.6 5.6 5.6 5.5 5.4 5.3 5.1 5.0 4.9 4.8 4.8 4.7 4.8 4.7 4.7 4.6 4.8 5.0 5.2 5.3
6.6 6.8 6.7 6.5 6.4 6.4 6.2 6.3 6.4 6.6 6.6 6.6 6.5 6.5 6.7 6.9 6.9 7.0 7.0 7.0 6.9 6.7 6.5 6.3 6.2 6.0 5.9 5.8 5.7 5.6 5.7 5.7 5.6 5.5 5.5 5.5 5.4 5.3 5.2 5.1 5.0 4.9 4.8 4.8 4.7 4.7 4.7 4.6 4.5 4.7 4.9 5.1 5.2 5.3
6.6 6.7 6.6 6.5 6.5 6.5 6.6 6.6 6.6 6.5 6.5 6.4 6.3 6.5 6.7 6.8 6.8 6.8 6.9 6.8 6.6 6.2 6.1 5.8 5.4 5.2 5.3 5.3 5.3 5.4 5.5 5.4 5.4 5.3 5.3 5.2 5.2 5.2 5.1 5.1 5.0 4.8 4.7 4.6 4.7 4.6 4.5 4.5 4.6 4.9 5.1 5.2 5.3 5.4
6.3 6.4 6.5 6.4 6.4 6.4 6.5 6.5 6.5 6.5 6.5 6.5 6.4 6.3 6.4 6.4 6.6 6.6 6.6 6.2 5.9 5.8 5.8 5.6 5.4 5.4 5.4 5.3 5.3 5.3 5.2 5.2 5.2 5.2 5.1 5.1 5.2 5.2 5.0 4.9 4.7 4.6 4.6 4.6 4.5 4.5 4.5 4.6 4.9 5.1 5.2 5.3 5.4 5.5
6.2 6.2 6.2 6.3 6.3 6.2 6.1 6.1 6.1 6.1 6.2 6.2 6.1 6.0 6.0 6.0 6.1 6.2 6.2 6.0 5.8 5.6 5.5 5.4 5.2 5.1 5.0 5.0 5.0 5.0 4.9 5.0 5.0 5.0 5.0 5.0 5.0 4.9 4.8 4.7 4.6 4.5 4.5 4.4 4.4 4.3 4.5 5.0 5.3 5.3 5.4 5.4 5.5 5.6
6.0 6.0 6.0 6.0 5.9 5.9 5.8 5.7 5.7 5.8 5.7 5.7 5.6 5.7 5.8 5.8 6.1 6.0 5.8 5.6 5.5 5.4 5.4 5.2 5.1 5.0 4.9 4.8 4.7 4.7 4.8 4.8 4.8 4.9 4.9 4.9 4.8 4.8 4.7 4.6 4.5 4.4 4.3 4.2 4.2 4.6 5.0 5.3 5.4 5.4 5.5 5.6 5.6 5.7
Wind_Speed
18 16 15 15 14 14 14 12 9 17 14 11 10 9 8 7 7 9 2 13 4 2 8 8 10 9 7 5 6 10 6 8 7 7 5 3 3 4 3 4 4 3 3 2 2 3 2 19 5 6 6 6 7 10
16 16 15 14 14 12 9 13 12 13 13 12 11 10 9 10 10 13 3 9 4 1 6 5 10 14 13 12 7 5 5 4 3 4 5 4 2 2 4 2 6 2 5 4 5 3 6 8 10 8 10 9 9 9
17 15 16 16 14 10 15 14 14 13 13 12 11 11 10 10 11 15 4 4 2 2 6 8 2 1 5 11 9 4 1 4 3 5 3 3 3 4 3 4 2 3 10 2 4 7 9 10 10 12 12 11 10 10
18 15 10 13 14 14 17 16 13 13 12 12 12 10 10 11 13 14 4 6 2 3 3 0 0 4 3 6 12 13 10 8 7 6 3 3 2 1 3 3 4 4 7 5 5 9 5 11 11 9 11 10 11 12
16 16 14 14 13 17 17 13 13 12 10 11 10 11 12 13 13 14 6 7 9 4 3 5 9 1 1 6 9 8 7 6 3 3 2 2 1 2 2 1 4 5 4 4 3 3 7 7 9 9 10 10 10 10
19 18 17 17 16 18 16 14 14 12 10 10 10 11 10 9 9 4 1 5 13 3 3 3 3 1 1 3 6 6 5 4 2 2 3 3 3 2 0 2 3 5 6 8 4 11 11 9 9 10 10 10 10 10
19 17 18 18 18 19 16 14 13 12 10 11 10 10 10 9 13 3 1 2 19 6 2 3 2 2 0 2 3 4 4 2 3 2 2 3 2 2 2 2 5 6 8 9 9 9 9 6 5 7 8 9 10 11
18 19 19 18 19 17 15 13 12 10 10 11 9 11 8 24 9 1 3 20 16 3 2 2 3 2 2 1 2 2 2 3 4 2 2 2 2 1 2 5 5 4 7 9 10 10 9 7 7 7 7 8 10 11
17 18 18 20 19 17 14 12 12 10 11 10 8 3 4 2 2 3 19 13 4 2 2 2 2 1 1 1 1 3 2 3 1 2 2 1 0 2 4 6 5 5 3 6 7 7 7 7 7 7 8 9 11 11
15 19 19 19 18 16 14 12 11 11 12 11 3 1 2 2 31 18 2 2 1 2 2 3 3 2 3 2 2 1 2 2 2 3 3 1 3 5 5 5 4 4 3 6 6 6 6 7 7 8 9 9 10 10
18 18 19 19 18 17 16 14 13 11 9 3 2 2 4 22 2 2 3 3 4 3 4 4 7 3 3 3 3 3 1 2 2 3 2 2 3 4 6 5 5 5 6 8 8 7 6 8 8 9 9 10 10 10
20 21 19 19 18 18 17 15 15 6 3 5 4 5 2 2 2 3 5 3 5 4 5 4 5 6 2 1 2 3 2 2 2 2 2 2 3 9 7 7 6 6 7 8 8 9 10 10 10 10 10 10 9 9
20 20 20 20 20 20 19 18 16 10 14 2 2 3 3 3 5 7 8 4 4 4 5 5 4 5 2 3 2 2 4 1 1 2 1 3 8 8 8 7 7 7 8 10 11 11 12 12 11 10 10 8 8 8
21 21 21 21 21 21 19 19 19 18 3 2 4 6 5 5 5 5 5 3 2 3 7 7 4 3 2 4 2 3 1 2 2 3 1 5 10 9 7 7 9 9 9 10 11 10 11 10 9 8 7 6 6 6
21 18 18 19 19 19 21 21 27 4 2 3 3 5 7 1 2 2 3 4 2 6 7 5 2 2 2 2 1 1 3 3 3 1 3 8 11 10 9 9 10 9 8 9 9 8 8 8 7 7 5 5 6 5
21 17 18 30 27 25 21 19 4 2 2 1 1 3 2 4 3 3 3 4 1 5 4 2 3 3 3 2 3 5 2 4 2 3 7 10 10 9 10 10 9 9 9 9 8 8 7 6 6 7 5 4 3 4
13 3 11 18 28 26 24 4 2 3 3 3 2 0 1 1 4 3 2 4 1 4 2 2 4 2 2 2 3 3 2 2 5 7 7 10 11 11 10 10 10 10 9 9 8 7 7 6 6 6 5 5 4 4
2 3 19 29 25 11 2 3 3 3 3 2 3 3 1 2 4 3 2 2 2 2 2 1 2 3 3 2 2 3 3 4 6 7 7 9 10 10 9 11 10 9 9 8 8 7 6 5 3 3 2 2 2 2
10 10 24 33 13 5 3 2 1 4 3 3 4 3 2 4 3 3 2 3 3 2 4 2 2 2 1 1 2 5 8 6 8 7 7 9 10 10 10 10 9 9 8 7 6 3 3 3 3 2 2 2 3 2
27 20 18 14 6 3 4 3 2 4 3 4 3 4 3 3 2 3 3 2 2 2 1 2 0 1 1 2 2 7 8 9 10 10 8 7 7 10 10 9 7 8 6 5 4 3 3 2 1 1 2 3 3 2
9 1 6 3 2 4 4 3 3 2 4 3 5 3 3 3 2 2 2 1 1 1 2 1 2 3 2 3 6 8 10 9 8 7 10 9 8 7 7 6 6 4 4 3 3 3 2 2 0 1 2 1 0 1
2 2 3 3 3 3 4 3 5 4 3 4 4 3 3 3 3 2 1 1 2 2 1 2 4 6 6 8 9 9 10 10 8 9 9 10 8 7 6 6 5 4 4 3 3 3 3 2 1 1 2 1 2 2
5 4 3 3 5 4 4 1 3 2 4 4 3 3 2 2 2 2 2 1 1 1 3 5 7 7 9 9 10 10 10 10 8 8 8 6 6 5 5 5 4 4 4 3 3 3 2 1 2 1 1 2 3 3
5 4 3 3 3 4 3 2 3 3 4 2 3 4 3 2 3 2 2 3 3 5 6 9 8 9 8 10 8 7 6 7 8 7 7 7 6 5 4 4 3 3 1 3 3 2 2 2 1 3 2 3 3 4
4 5 3 4 2 4 4 4 3 3 3 3 4 3 4 3 3 4 3 4 7 7 8 8 8 8 9 8 6 6 6 7 8 8 5 5 6 5 4 4 3 3 2 3 3 3 2 2 3 3 4 4 5 6
5 3 2 2 3 2 4 4 4 4 4 4 3 4 3 3 4 3 2 5 6 8 9 9 8 8 8 7 8 7 6 5 7 7 5 5 4 5 5 5 4 3 2 0 1 2 2 1 2 2 3 3 2 5
4 2 3 3 1 4 3 3 2 2 3 4 5 5 4 4 4 2 2 2 4 6 7 6 7 8 9 8 7 6 6 5 5 5 6 4 3 3 1 2 3 3 4 3 1 1 1 2 1 1 1 2 3 4
3 2 3 2 4 3 3 2 2 2 2 1 4 5 4 0 2 2 2 2 3 7 7 5 5 7 8 8 8 8 7 8 9 8 7 7 5 4 5 5 6 7 5 3 3 2 1 0 1 2 3 4 4 3
3 2 2 4 3 4 3 2 2 2 2 1 2 2 2 2 2 2 2 3 5 7 8 7 7 7 8 7 6 6 7 6 7 8 6 4 4 3 3 4 4 3 3 3 3 2 1 0 1 2 3 4 4 4
2 2 3 3 3 2 2 2 2 2 3 2 2 3 3 2 3 3 2 4 5 6 6 7 8 8 8 8 7 5 3 3 2 1 3 3 3 6 5 4 3 3 2 2 1 2 1 1 2 3 3 4 4 5
1 2 3 3 3 3 3 3 2 2 2 3 3 3 4 3 2 4 4 3 4 6 8 8 6 6 7 8 7 7 4 2 2 3 4 5 7 6 5 4 4 3 2 2 1 1 1 2 3 4 4 5 6 5
2 2 3 3 3 3 1 1 1 2 2 2 2 2 2 2 3 2 3 1 4 6 5 6 7 6 5 5 5 4 6 7 6 6 8 6 6 6 7 5 4 3 2 2 2 1 2 3 3 4 5 7 7 8
3 2 2 4 4 4 3 2 2 3 2 2 2 1 2 2 3 2 2 3 1 4 6 6 7 7 8 7 8 8 9 9 12 11 11 10 9 8 6 5 4 3 2 1 1 2 3 4 4 6 6 7 8 8
Wind_Direction
189 196 203 194 191 192 201 198 210 195 190 191 196 202 215 223 207 179 134 180 184 224 280 252 270 282 311 323 326 330 317 16 0 17 5 11 10 31 260 47 335 2 312 151 179 245 154 357 0 29 336 44 32 49
195 194 193 190 197 205 197 211 201 196 198 198 204 212 227 233 212 185 163 183 151 221 300 314 277 274 271 272 282 313 323 338 2 338 11 309 349 341 336 60 32 70 21 345 28 51 55 38 53 42 42 53 39 58
187 194 197 198 196 194 197 217 182 190 201 205 215 227 223 218 197 186 150 132 107 278 268 250 287 354 247 233 228 269 279 331 26 16 334 293 315 350 333 58 320 63 14 340 201 69 62 43 52 48 47 51 49 53
183 184 197 197 194 196 218 191 195 199 207 221 219 211 221 221 197 178 174 160 199 269 285 219 98 289 228 202 211 224 269 305 307 317 311 298 306 349 37 61 53 359 304 340 89 132 103 55 41 43 51 59 61 56
189 189 208 204 186 195 204 193 210 209 225 215 213 223 225 227 212 188 155 190 215 274 310 301 309 105 235 215 218 215 227 259 293 293 272 300 296 320 91 128 58 1 358 340 39 357 71 56 46 49 59 54 54 72
192 197 203 204 182 193 198 201 210 214 224 219 234 233 230 209 198 123 225 206 204 213 276 292 11 222 92 186 184 181 191 208 245 269 276 285 71 342 329 76 69 14 30 344 82 77 92 88 62 55 64 60 59 66
196 205 205 203 195 190 196 202 209 224 216 236 241 250 255 224 152 172 223 59 168 144 233 286 272 124 255 158 153 164 175 211 249 259 248 279 55 9 19 97 84 32 50 40 118 125 83 42 77 79 80 81 80 76
206 205 207 203 190 193 199 201 216 204 222 238 241 251 250 154 113 131 56 135 143 135 216 267 275 253 191 180 172 178 186 213 222 282 273 279 108 81 90 104 83 49 81 65 63 71 92 113 99 84 92 95 84 76
201 206 207 192 188 193 200 203 200 209 229 235 251 196 113 98 138 128 136 134 97 258 222 220 257 28 96 265 161 167 242 228 168 240 220 254 197 61 96 115 84 58 70 115 110 96 94 92 90 88 89 88 88 85
202 197 188 190 193 195 196 209 208 217 218 220 162 155 134 189 118 106 133 146 173 222 238 243 219 233 191 207 147 235 207 262 253 173 139 226 89 106 102 92 81 66 53 173 142 120 116 102 95 83 77 76 81 82
186 189 190 193 197 202 205 214 221 203 200 172 141 95 99 118 101 155 139 187 177 231 204 229 212 205 184 206 170 210 253 194 255 121 264 167 144 144 138 109 90 80 76 78 87 90 83 106 109 103 91 85 82 80
193 194 198 203 207 207 209 215 206 195 170 167 120 93 132 148 142 171 171 172 215 236 172 197 204 216 141 223 209 179 251 196 270 141 243 210 105 135 138 122 106 96 94 91 90 94 95 97 101 103 99 92 83 79
200 206 210 210 210 210 214 212 199 203 144 143 105 122 182 154 194 192 183 198 210 188 180 165 161 165 150 201 207 226 235 209 134 219 268 62 136 139 133 128 117 109 106 102 100 99 99 96 93 103 100 95 99 87
210 212 211 212 215 213 211 201 206 175 136 160 161 143 205 175 224 194 197 171 119 153 163 163 139 154 143 174 253 240 55 246 238 240 135 143 149 141 132 127 126 114 108 109 105 103 99 95 92 87 89 98 103 93
216 216 223 222 222 217 211 198 173 86 114 176 166 194 195 170 92 109 103 122 136 148 154 144 109 178 150 205 221 130 201 233 238 307 107 139 145 139 135 131 128 125 120 113 117 115 112 113 112 100 90 96 102 109
211 234 230 229 231 216 196 175 107 66 84 105 167 156 134 150 160 167 166 143 192 140 160 204 153 185 185 199 184 208 219 230 120 106 129 136 138 135 134 134 131 129 130 130 127 128 130 128 121 117 125 129 136 141
169 197 207 194 181 182 143 97 103 78 117 131 142 205 274 99 144 126 162 150 117 167 183 175 185 158 106 196 220 211 249 61 123 128 135 136 145 141 133 131 135 137 138 136 135 135 129 129 146 158 140 152 172 152
92 18 168 163 144 100 64 51 94 97 106 126 177 156 127 44 111 117 142 127 167 151 145 205 133 190 208 220 192 149 123 120 120 126 126 129 127 131 140 139 145 149 143 140 135 136 141 152 133 98 101 138 184 196
118 87 109 121 110 98 93 81 279 98 90 107 110 130 105 93 75 93 112 95 88 80 123 176 200 209 204 170 123 137 142 144 136 122 116 120 131 135 140 140 141 138 133 140 151 137 114 73 47 38 12 317 296 305
99 95 86 94 102 92 109 112 141 113 142 130 136 122 95 90 103 94 93 78 91 97 174 229 250 73 54 93 114 144 140 135 135 132 131 135 139 147 149 149 141 138 137 128 119 128 133 130 109 21 353 347 306 322
82 39 99 87 88 75 89 118 81 87 118 102 126 134 106 123 113 114 103 67 111 182 174 151 124 85 82 124 133 135 138 149 149 150 147 144 150 143 145 140 145 146 155 161 175 151 229 256 175 246 270 282 269 297
83 339 92 45 90 94 88 45 103 112 103 131 137 111 118 139 134 116 121 152 154 116 138 143 133 133 130 133 133 132 127 122 120 117 115 130 145 151 154 156 169 173 178 185 198 204 204 187 201 214 265 249 245 278
74 30 57 59 72 60 100 192 93 98 121 136 120 102 122 143 118 163 163 104 108 121 148 131 128 127 123 123 122 126 135 136 137 132 142 137 129 131 139 148 152 171 181 177 184 184 181 114 157 263 259 244 278 280
28 54 59 78 86 105 137 109 110 111 116 138 134 129 156 136 157 210 204 169 133 147 148 143 139 129 125 135 135 129 134 134 126 127 136 142 137 129 130 125 129 124 98 140 170 169 168 193 264 255 274 273 279 294
70 24 22 79 90 122 118 128 112 110 124 152 140 148 160 171 186 198 220 163 167 165 156 158 156 157 150 139 128 121 147 150 145 136 134 135 124 129 135 136 123 106 143 164 182 210 219 259 263 270 276 279 295 297
79 21 18 100 124 135 150 137 159 144 133 141 147 121 168 176 189 213 165 163 168 165 166 166 159 149 148 148 143 145 137 135 135 131 129 145 157 171 166 169 175 163 153 208 174 235 235 240 256 264 280 282 273 295
111 102 74 33 24 110 108 82 97 131 143 156 160 168 172 196 207 121 107 157 160 157 160 157 160 154 142 133 113 106 105 92 83 101 112 103 80 49 116 177 189 90 130 118 140 245 241 196 201 270 306 296 301 305
80 36 145 66 78 28 110 98 117 124 132 130 161 178 188 236 117 63 36 46 130 121 108 88 94 119 125 123 120 117 99 101 104 106 102 84 67 68 78 80 84 90 94 88 101 105 118 171 293 298 303 305 312 304
71 49 98 66 68 58 46 55 98 82 16 202 133 124 122 58 16 349 31 132 141 130 117 112 101 107 102 98 96 105 128 138 143 144 151 147 161 133 101 107 105 92 107 126 133 114 102 61 321 303 306 302 313 304
83 5 95 73 66 68 48 5 78 72 42 50 89 117 107 75 24 353 138 150 153 134 124 127 134 136 134 132 127 116 84 56 35 139 171 168 153 131 141 136 132 123 126 121 161 158 144 260 247 246 286 296 299 312
48 106 86 75 90 97 90 91 112 110 67 62 37 85 98 107 98 43 45 69 109 126 129 130 126 135 137 141 145 144 145 113 80 64 76 104 121 128 129 123 119 118 106 111 99 46 325 287 305 313 314 319 319 311
47 63 124 118 125 134 162 157 83 83 92 98 88 114 146 146 90 80 21 51 135 135 120 137 137 133 113 104 91 73 73 115 118 116 114 115 114 116 118 117 119 110 108 93 68 25 327 327 324 328 321 320 325 322
118 109 92 115 132 165 151 144 86 116 115 119 101 70 52 35 113 95 85 13 350 139 131 108 103 107 101 97 105 104 99 100 100 98 99 105 113 117 117 112 107 109 110 72 16 331 329 335 331 333 328 327 326 326